Location: Karcze
(52.0945°N, 22.4786°E)
Time: 02:52:07
(UTC+00:00)

Transit 2A Rocket - Pass Details

Date: 28 July 2021
Orbit: 586 x 917 km, 66.7° (Epoch: 27 September)

Event Time Altitude Azimuth Distance (km) Brightness Sun altitude
Rises 21:54:39 0° 319° (NW) 3,210 9.3 -18.6°
Reaches altitude 10° 21:56:57 10° 318° (NW) 2,332 8.3 -18.6°
Maximum altitude 22:02:19 69° 236° (SW) 887 5.2 -18.8°
Enters shadow 22:04:52 34° 163° (SSE) 1,379 5.8 -18.8°
Drops below altitude 10° 22:08:07 10° 154° (SSE) 2,520 - -18.9°
Sets 22:10:41 0° 152° (SSE) 3,488 - -18.9°
